Content
SEND FEEDBACK

Daily
Averages
Monthly
Summary
Greece

KALAMION, GREECE


Home > Europe > Greece
Elevation: 495 feet     Latitude: 35 36N     Longitude: 024 06E

WEATHER
 
SELECT A DAY
Number of Records: 90,473;   Date Range: 7/3/96 - 4/17/14
 
SHARE

PRINT THIS DATA

[ ← Previous Day ]
WEATHER ALMANAC - JANUARY 31, 2013
[ Next Day → ]
[ °C ]   °F
Weather ElementAverageHighLow
Temperature53.5 °F60.8 °F (12:50 pm)44.6 °F (6:50 am)
Dewpoint44.1 °F51.8 °F (9:50 pm)39.2 °F (4:50 am)
Humidity71.1 %87 % (1:50 am)41 % (2:00 pm)
Barometer29.92 in29.99 in (2:00 am)29.80 in (6:20 pm)
Wind Speed9.5 mph23 mph (6:50 pm)
Wind Gust34.5 mph (6:50 pm)
Weather ElementAverage
Visibility6.2 mi
Wind DirectionWSW (244.2 °)

Weather ElementTotal
Precipitation---
Heating Degree Days12.3 (Base 65)
Growing Degree Days2.7 (Base 50)
Averaged from 49 records on January 31, 2013
WEATHER CONDITIONS BREAKOUT
WIND DIRECTION BREAKOUT
WEATHER BY HOUR - JANUARY 31, 2013
[ °C ]   °F
Local TimeTemperatureDewpointHumidityBarometerVisibilityWind DirectionWind SpeedGust SpeedPrecipitationEventsConditions
12:50 AM48.2 °F41.0 °F76 %29.98 in6.2 miWNW (290°)4.6 mphMostly Cloudy
1:20 AM48.2 °F41.0 °F76 %29.98 in6.2 miWest (270°)4.6 mphMostly Cloudy
1:50 AM46.4 °F42.8 °F87 %29.95 in6.2 miWNW (290°)4.6 mphScattered Clouds
2:00 AM47.0 °F43.0 °F80 %29.99 in6.0 miWNW (290°)4.6 mphScattered Clouds
2:20 AM46.4 °F42.8 °F87 %29.95 in6.2 miCalmScattered Clouds
2:50 AM46.4 °F42.8 °F87 %29.95 in6.2 miCalmScattered Clouds
3:20 AM46.4 °F42.8 °F87 %29.95 in6.2 miCalmPartly Cloudy
3:50 AM46.4 °F42.8 °F87 %29.95 in6.2 miCalmPartly Cloudy
4:20 AM46.4 °F42.8 °F87 %29.95 in6.2 miCalmPartly Cloudy
4:50 AM46.4 °F39.2 °F76 %29.95 in6.2 miWest (260°)4.6 mphPartly Cloudy
5:20 AM46.4 °F39.2 °F76 %29.95 in6.2 miWest (280°)4.6 mphPartly Cloudy
5:50 AM46.4 °F39.2 °F76 %29.95 in6.2 miWest (280°)4.6 mphPartly Cloudy
6:20 AM46.4 °F39.2 °F76 %29.95 in6.2 miWNW (300°)5.8 mphPartly Cloudy
6:50 AM44.6 °F41.0 °F87 %29.95 in6.2 miWNW (300°)5.8 mphPartly Cloudy
7:20 AM44.6 °F41.0 °F87 %29.95 in6.2 miCalmPartly Cloudy
7:50 AM44.6 °F41.0 °F87 %29.95 in6.2 miCalmPartly Cloudy
8:00 AM45.0 °F40.0 °F78 %29.99 in6.0 miCalmScattered Clouds
8:20 AM48.2 °F42.8 °F82 %29.95 in6.2 miWNW (300°)4.6 mphPartly Cloudy
8:50 AM48.2 °F42.8 °F82 %29.95 in6.2 miWNW (290°)4.6 mphPartly Cloudy
9:20 AM51.8 °F44.6 °F76 %29.95 in6.2 miWNW (290°)4.6 mphPartly Cloudy
9:50 AM55.4 °F41.0 °F58 %29.98 in6.2 miWNW (300°)4.6 mphPartly Cloudy
10:20 AM55.4 °F41.0 °F58 %29.98 in6.2 miWest (280°)9.2 mphPartly Cloudy
10:50 AM57.2 °F41.0 °F55 %29.98 in6.2 miWest (280°)9.2 mphPartly Cloudy
11:20 AM57.2 °F41.0 °F55 %29.98 in6.2 miWNW (290°)9.2 mphPartly Cloudy
11:50 AM59.0 °F39.2 °F48 %29.95 inWNW (290°)9.2 mphClear
12:20 PM59.0 °F39.2 °F48 %29.95 inWNW (290°)9.2 mphClear
12:50 PM60.8 °F41.0 °F48 %29.92 inWest (280°)5.8 mphClear
1:20 PM60.8 °F41.0 °F48 %29.92 inWNW (300°)11.5 mphClear
1:50 PM60.8 °F42.8 °F52 %29.92 in6.2 miWNW (300°)16.1 mphPartly Cloudy
2:00 PM60.0 °F43.0 °F41 %29.92 in6.0 miWNW (300°)16.1 mphScattered Clouds
2:20 PM60.8 °F42.8 °F52 %29.92 in6.2 miWest (280°)17.3 mphPartly Cloudy
2:50 PM60.8 °F46.4 °F59 %29.89 in6.2 miWest (280°)13.8 mph25.3 mphPartly Cloudy
3:20 PM60.8 °F46.4 °F59 %29.89 in6.2 miWest (270°)18.4 mphPartly Cloudy
3:50 PM59.0 °F50.0 °F72 %29.89 in6.2 miWest (280°)16.1 mph27.6 mphScattered Clouds
4:20 PM59.0 °F50.0 °F72 %29.89 in6.2 miWest (280°)13.8 mph25.3 mphScattered Clouds
4:50 PM59.0 °F48.2 °F67 %29.86 in6.2 miWest (270°)16.1 mph27.6 mphScattered Clouds
5:20 PM59.0 °F48.2 °F67 %29.86 in6.2 miWest (270°)18.4 mphScattered Clouds
5:50 PM57.2 °F48.2 °F72 %29.83 in6.2 miWest (270°)16.1 mph27.6 mphScattered Clouds
6:20 PM57.2 °F48.2 °F72 %29.80 in6.2 miWest (270°)20.7 mph32.2 mphScattered Clouds
6:50 PM57.2 °F46.4 °F67 %29.83 in6.2 miWest (270°)23.0 mph34.5 mphScattered Clouds
7:20 PM57.2 °F46.4 °F67 %29.83 in6.2 miWest (270°)18.4 mph29.9 mphScattered Clouds
7:50 PM57.2 °F50.0 °F77 %29.86 in6.2 miWest (280°)18.4 mph29.9 mphMostly Cloudy
8:00 PM57.0 °F49.0 °F67 %29.88 in6.0 miWest (280°)18.4 mphPartly Cloudy
8:20 PM57.2 °F50.0 °F77 %29.86 in6.2 miWest (280°)17.3 mph28.8 mphScattered Clouds
8:50 PM57.2 °F50.0 °F77 %29.89 in6.2 miWest (280°)17.3 mph28.8 mphScattered Clouds
9:20 PM57.2 °F50.0 °F77 %29.89 in6.2 miWest (280°)13.8 mph25.3 mphScattered Clouds
9:50 PM57.2 °F51.8 °F82 %29.89 in6.2 miWest (270°)13.8 mphScattered Clouds
10:20 PM57.2 °F51.8 °F82 %29.89 in6.2 miNNW (330°)5.8 mphScattered Clouds
11:50 PM55.4 °F46.4 °F72 %29.95 in6.2 miNorth (360°)9.2 mphScattered Clouds
Hourly data recorded from LGSA, located 4.71 miles away from Kalamion, Greece







STORIES FROM OUR PARTNERS